Temperature
17 16 16 16 16 16 16 17 17 16 16 16 16 16 16 16 16 16 16 16 16 16 16 16 15 15 15 15 16 15 15 15 15 15 15 15 15 15 15 15 15 15 15
17 16 16 16 16 16 16 16 17 16 16 16 16 16 16 16 16 16 16 16 16 16 16 16 15 15 15 16 16 15 15 15 15 15 15 15 15 15 15 15 15 15 15
17 16 16 16 16 16 16 16 16 16 16 16 16 16 16 16 16 16 16 16 16 16 16 16 15 16 16 16 16 15 15 15 15 15 15 15 15 15 15 15 15 15 15
17 16 16 16 16 16 16 16 16 16 16 16 16 16 16 16 16 16 16 16 16 16 16 16 16 16 16 16 16 16 16 16 16 16 16 16 15 15 15 15 15 15 15
17 16 16 16 16 16 16 16 16 16 16 16 16 16 16 16 16 16 16 16 16 16 16 16 16 16 16 16 16 16 16 16 16 16 16 15 15 15 15 15 15 15 15
16 16 16 16 16 16 16 16 16 16 16 16 16 16 16 16 16 16 16 16 16 16 16 16 16 16 16 16 16 16 16 16 16 16 16 15 15 15 15 15 15 15 15
16 16 16 16 16 16 16 16 16 16 16 16 16 16 16 16 16 16 16 16 16 16 16 16 16 16 16 16 16 16 16 16 16 16 16 15 15 15 15 15 15 15 15
16 16 16 16 16 16 16 16 16 16 16 16 16 16 16 16 16 16 16 16 16 16 16 16 16 16 16 16 16 16 16 16 16 16 15 15 15 15 15 15 15 15 15
16 16 15 15 16 16 16 16 16 16 16 16 16 16 16 16 16 16 16 16 16 16 16 16 16 16 16 16 16 16 16 16 15 15 15 15 15 15 15 15 15 15 15
15 15 15 15 15 15 15 15 16 16 16 16 16 16 16 16 16 16 16 16 16 16 16 16 16 16 16 16 16 16 15 15 15 15 15 15 15 15 15 14 14 14 14
15 15 15 15 15 15 15 15 15 15 16 16 16 16 17 17 17 17 16 16 16 16 16 16 16 16 16 16 16 15 15 15 15 15 15 14 14 14 14 14 14 14 14
15 15 15 15 15 15 15 15 15 15 16 16 16 16 17 17 17 17 16 16 16 16 16 16 16 16 16 16 15 15 15 15 15 15 14 14 14 14 14 14 13 13 13
15 15 15 15 15 15 15 15 15 15 16 16 16 16 16 17 17 17 17 16 16 16 16 16 16 16 16 15 15 15 15 15 14 14 14 14 14 14 13 13 13 13 13
15 15 15 15 15 15 15 15 15 15 16 16 16 16 16 16 16 17 16 16 16 16 16 16 16 15 15 15 15 15 15 15 14 14 14 14 14 13 13 13 13 13 13
15 15 15 15 15 15 15 15 15 15 16 16 16 16 16 16 16 16 16 16 16 16 16 16 15 15 15 15 15 14 14 14 14 14 14 14 13 13 13 13 13 13 12
15 15 15 15 15 15 15 15 15 15 15 15 16 16 16 16 16 16 16 16 16 16 15 15 15 15 14 14 14 14 14 14 14 14 14 14 13 13 13 13 12 12 12
15 15 15 15 15 15 15 15 15 15 15 15 15 16 16 16 16 16 16 16 16 15 15 15 15 14 14 14 14 14 14 14 14 14 14 14 13 13 13 13 12 12 12
15 15 15 15 15 15 15 15 15 15 15 15 15 15 15 15 15 15 15 15 15 15 15 14 14 14 14 14 14 14 14 14 14 14 14 14 13 13 13 12 12 12 12
15 15 15 15 15 15 15 15 15 15 15 15 15 15 15 15 15 15 15 15 15 14 14 14 14 14 14 14 14 14 14 14 14 14 14 13 13 13 13 12 12 12 12
15 14 14 14 15 15 15 15 15 15 15 15 15 15 15 15 15 15 15 14 14 14 14 14 14 13 13 13 13 13 13 14 14 14 14 13 13 13 13 12 12 12 11
14 14 14 14 14 15 15 14 14 15 15 15 15 15 15 15 15 15 14 14 14 14 14 14 13 13 13 13 13 13 13 13 14 14 14 13 13 13 12 12 12 12 11
14 14 14 14 14 15 15 15 15 15 15 15 15 14 14 14 14 14 14 14 14 14 13 13 13 13 13 13 12 12 12 13 13 13 13 13 13 12 12 12 11 11 11
14 14 15 14 14 14 15 15 14 14 14 14 14 14 14 14 14 14 14 14 14 14 13 13 13 13 13 13 12 12 12 12 12 12 12 12 12 12 11 11 11 11 11
14 14 14 14 14 14 14 14 14 14 14 14 15 14 14 14 14 14 14 14 13 13 13 13 13 13 13 12 12 12 12 11 11 11 11 12 11 11 11 11 10 10 10
14 14 15 14 14 14 14 14 14 14 14 14 14 14 14 14 14 14 13 13 13 13 13 13 13 13 12 12 12 12 11 11 11 10 10 11 11 10 10 10 10 10 9
14 14 14 14 14 14 14 14 14 14 14 14 14 14 14 14 14 13 13 13 13 13 13 13 13 12 12 12 12 12 11 11 11 10 10 10 10 10 9 9 9 9 9
Wind_Speed
10 16 24 23 22 20 19 19 19 19 19 20 20 20 21 21 21 21 21 21 21 21 21 21 21 21 20 20 20 20 19 19 19 19 19 18 19 19 19 18 18 17 19
14 20 25 24 22 21 20 19 19 18 19 19 20 20 21 21 21 21 21 21 21 21 21 21 20 20 20 19 19 19 18 18 18 18 17 17 17 18 18 18 17 16 18
18 21 24 24 23 21 20 20 19 18 19 19 20 20 20 21 21 20 21 21 21 20 20 20 19 19 18 18 17 17 17 17 16 16 15 14 15 17 17 17 17 17 17
18 21 23 25 23 22 21 20 19 19 18 19 20 20 20 20 20 20 21 20 20 20 20 19 18 18 17 17 16 16 16 15 15 15 14 14 14 16 16 16 17 17 16
16 20 23 25 24 22 21 20 19 19 19 19 19 20 20 20 20 20 20 20 20 20 19 18 17 17 17 16 16 16 15 15 14 14 14 13 13 15 15 15 16 16 15
15 19 24 25 24 22 21 20 20 19 19 19 20 20 20 20 20 20 19 19 19 19 18 17 17 16 16 16 15 15 15 14 14 13 12 12 12 13 14 14 14 14 14
16 18 23 24 24 22 21 20 20 20 20 19 20 20 20 20 20 19 19 19 18 18 17 16 16 16 15 15 15 14 14 13 13 12 10 10 11 12 12 12 12 12 13
15 16 21 24 23 22 21 20 20 19 19 19 20 19 19 19 19 19 18 18 17 17 16 15 15 14 14 14 14 13 12 11 10 9 9 8 10 10 11 11 11 11 11
14 14 15 19 20 21 20 20 19 19 19 19 19 19 19 19 19 18 18 17 16 15 15 14 13 13 12 12 11 11 10 10 9 7 6 6 7 8 9 9 10 10 10
12 12 12 15 17 17 18 19 19 18 18 19 19 19 19 18 17 17 16 16 15 14 13 12 12 11 10 10 9 9 9 8 7 5 4 4 5 6 7 7 8 8 8
14 12 11 11 13 15 16 17 17 17 18 18 18 19 17 15 15 14 14 14 14 13 12 11 10 9 9 8 8 7 7 6 4 3 2 2 3 4 5 5 5 6 6
17 14 11 11 11 13 14 14 14 14 15 15 16 16 14 13 13 12 13 13 12 11 10 9 8 8 7 7 6 5 4 3 2 1 1 1 1 2 2 3 3 3 4
16 15 13 12 12 11 9 11 11 11 12 13 15 15 13 12 11 10 10 9 9 8 7 6 6 5 5 4 3 2 2 1 2 2 3 3 2 1 1 1 1 1 1
15 15 14 12 11 11 11 10 9 9 10 11 13 14 13 9 8 8 7 7 7 6 5 4 3 3 2 2 1 1 1 2 3 4 5 5 4 4 3 2 2 2 1
13 15 14 13 12 10 9 9 9 9 10 12 13 14 13 9 7 7 7 7 6 6 5 4 3 1 0 0 0 1 2 4 5 5 6 6 6 6 5 5 4 4 3
13 14 14 14 13 11 9 8 8 10 11 12 13 14 15 12 9 7 6 6 6 7 6 5 3 2 1 1 2 2 4 5 5 6 7 7 7 7 7 7 6 6 5
12 12 13 14 14 12 11 10 10 11 12 11 12 15 15 14 12 9 6 5 7 8 6 4 3 2 1 1 2 3 3 4 5 6 7 7 7 8 8 8 7 6 5
12 13 13 12 14 13 11 9 9 11 12 11 12 14 15 15 14 10 6 6 8 8 6 3 2 2 1 1 2 2 2 3 4 6 6 7 7 7 7 7 7 6 5
11 13 13 11 13 14 11 9 8 10 10 11 12 12 14 15 14 11 7 7 9 7 5 3 2 3 2 2 2 2 2 2 3 4 4 4 4 5 5 5 4 4 3
10 12 13 12 11 12 10 7 6 7 7 9 10 11 13 14 15 12 8 8 8 5 4 3 3 2 2 2 1 2 2 2 2 2 2 3 3 3 4 3 2 2 2
8 11 13 13 12 11 9 9 9 9 7 7 8 11 13 14 14 12 7 7 7 6 6 5 3 3 2 2 1 2 2 1 1 1 1 1 1 1 1 1 1 1 1
9 11 12 13 12 12 11 9 6 6 5 6 5 9 12 12 13 12 8 6 6 5 5 5 4 3 2 3 2 0 3 3 2 2 2 2 1 2 2 2 2 1 1
7 9 10 11 12 13 11 7 5 4 3 4 6 6 8 12 12 12 10 7 6 6 6 6 5 5 3 3 3 3 2 3 2 1 2 2 2 2 2 3 3 2 2
7 7 8 9 10 11 11 10 11 9 8 8 8 7 7 10 10 11 10 9 7 6 6 6 5 4 4 3 2 2 3 3 2 2 1 1 2 2 2 2 2 3 3
6 6 7 8 9 10 11 12 12 9 8 6 6 8 8 7 8 9 9 8 7 6 6 6 6 5 4 4 3 2 2 2 3 3 4 2 1 0 1 1 2 2 3
4 5 5 7 8 9 10 11 12 12 9 8 8 8 7 5 5 6 8 7 6 5 6 5 5 5 4 3 3 3 3 2 3 3 4 3 3 1 0 1 1 1 2
Wind_Direction
160 156 152 146 141 136 131 129 126 125 124 125 125 125 124 122 121 120 117 114 112 111 109 107 105 101 97 93 90 87 84 81 77 76 75 75 76 75 73 71 69 65 68
149 153 151 147 142 138 134 131 129 128 128 128 128 127 126 124 123 121 119 116 115 113 112 109 105 102 99 96 93 89 86 83 79 75 73 73 74 75 73 72 70 68 68
146 151 149 146 143 140 137 134 133 132 131 131 129 127 126 126 125 123 121 118 116 115 112 108 104 102 100 97 95 92 89 85 80 75 71 70 74 76 74 72 70 69 68
145 148 148 146 144 142 140 138 136 135 135 133 132 130 128 126 125 123 122 120 118 115 111 107 104 103 101 98 97 96 93 89 83 76 69 68 73 76 74 72 70 69 68
143 146 148 146 145 144 143 141 139 138 137 136 134 132 129 127 124 123 122 121 118 115 112 108 106 104 102 99 99 99 96 92 85 78 72 69 72 76 74 72 70 69 68
141 144 148 147 146 145 145 144 141 140 139 138 136 133 130 128 126 124 123 123 120 117 115 111 107 105 103 101 101 101 99 94 87 79 72 70 74 77 76 73 71 69 68
143 145 149 148 147 147 147 146 144 143 141 139 138 135 133 131 129 128 128 127 125 121 118 113 109 107 106 104 103 103 102 95 89 80 73 72 77 78 76 74 71 70 69
145 145 150 149 148 149 150 149 147 146 145 142 140 138 136 134 133 132 133 132 130 126 122 117 112 110 109 107 106 105 102 98 91 83 76 76 81 79 78 76 74 72 70
144 145 146 148 149 150 151 150 149 149 147 145 142 140 138 138 138 137 137 137 135 131 126 121 116 112 110 109 108 106 103 103 97 89 81 82 84 82 81 79 76 73 70
146 146 145 146 148 149 150 151 150 150 148 146 142 139 138 140 140 139 139 139 137 135 130 126 120 114 110 108 109 110 108 104 96 91 86 89 88 85 83 82 79 76 73
155 152 149 147 147 147 150 153 150 150 148 144 141 141 139 139 139 139 141 141 140 139 135 130 122 114 106 103 106 110 111 106 103 98 101 110 95 89 85 84 82 80 78
164 161 157 153 150 149 153 150 148 148 148 144 145 143 142 142 142 144 146 145 143 140 136 130 120 111 105 99 97 103 109 121 127 167 212 201 135 107 96 94 92 87 83
167 165 164 160 156 153 149 150 148 147 148 147 150 150 147 144 144 145 146 147 145 141 133 125 112 109 108 103 93 95 122 172 216 247 250 247 247 225 192 152 144 130 110
170 169 167 164 160 157 154 156 154 153 155 157 159 158 154 151 151 154 155 155 153 151 143 136 126 118 108 102 111 143 228 243 248 255 259 257 255 253 252 253 248 240 223
174 173 171 166 164 161 157 161 164 164 166 168 168 169 167 164 165 166 168 167 168 167 165 161 158 152 115 8 267 229 250 256 256 255 261 264 260 259 261 261 262 259 252
178 176 173 171 169 166 166 166 169 172 173 173 177 180 178 176 175 173 175 178 182 184 184 181 182 183 230 271 276 258 251 252 253 253 258 264 264 263 265 266 267 267 259
184 178 177 178 172 171 173 175 175 177 177 181 185 186 185 184 183 180 180 187 195 193 188 182 184 183 222 248 267 266 255 254 258 261 262 263 265 265 263 263 265 266 266
184 182 181 182 178 178 179 179 178 180 183 189 189 189 191 191 189 183 184 195 197 189 182 174 169 178 213 233 259 273 272 274 276 274 271 266 262 262 263 263 264 268 272
192 186 183 184 185 183 182 182 181 182 187 191 190 190 194 195 193 188 191 194 186 177 178 176 172 176 198 226 248 268 277 271 279 282 276 273 266 260 259 265 268 270 271
195 191 189 187 190 186 182 178 179 182 186 188 190 195 194 196 194 191 192 189 180 171 176 176 180 182 191 206 244 284 283 270 275 275 275 280 277 268 263 260 259 276 289
195 193 192 190 191 187 184 185 188 193 188 186 191 195 196 197 195 192 191 184 180 185 188 178 169 177 191 160 139 318 312 295 303 312 318 318 331 318 317 268 217 223 303
197 194 194 193 193 194 193 189 184 179 183 184 185 194 196 195 194 195 191 188 182 184 182 179 170 167 178 164 157 200 319 329 2 23 35 44 28 47 52 46 75 86 84
209 204 199 195 197 198 193 179 166 153 145 174 192 197 198 197 196 193 190 185 184 185 189 187 181 180 189 189 182 176 199 256 304 329 38 44 40 44 40 46 54 60 71
212 209 206 201 201 198 189 184 186 189 196 199 195 193 191 196 196 193 189 186 184 183 183 185 183 184 178 194 199 212 209 188 226 295 308 42 49 45 30 41 38 43 58
208 202 202 202 206 200 195 192 196 203 204 190 178 180 186 187 189 191 189 185 184 184 184 178 175 182 183 186 186 180 198 215 213 230 271 270 290 64 38 42 49 48 53
205 197 194 199 205 200 194 196 197 201 196 182 183 186 185 183 185 188 185 183 181 180 183 178 174 174 183 185 184 181 179 197 210 215 245 251 252 224 125 52 66 67 66
Height
1507 1512 1516 1519 1522 1524 1526 1528 1529 1531 1532 1534 1536 1538 1540 1542 1544 1546 1548 1549 1551 1552 1553 1554 1555 1556 1557 1557 1558 1558 1559 1559 1559 1559 1560 1560 1560 1560 1560 1560 1560 1560 1560
1504 1510 1515 1518 1521 1524 1526 1528 1530 1531 1533 1535 1537 1539 1541 1543 1545 1547 1549 1551 1552 1553 1555 1556 1557 1558 1559 1560 1560 1561 1561 1562 1562 1562 1562 1562 1562 1563 1563 1562 1562 1562 1562
1503 1509 1514 1518 1521 1523 1526 1528 1530 1532 1534 1536 1538 1540 1542 1544 1547 1549 1550 1552 1554 1555 1556 1558 1559 1560 1561 1562 1563 1563 1564 1564 1564 1565 1565 1565 1565 1565 1565 1565 1565 1564 1564
1503 1508 1513 1517 1520 1523 1526 1528 1530 1532 1534 1537 1539 1541 1543 1545 1548 1550 1552 1553 1555 1557 1558 1560 1561 1562 1563 1564 1565 1565 1566 1566 1567 1567 1567 1567 1567 1567 1567 1567 1567 1566 1566
1504 1508 1513 1517 1520 1523 1526 1528 1531 1533 1535 1538 1540 1542 1545 1547 1549 1551 1553 1555 1557 1558 1560 1561 1563 1564 1565 1566 1567 1568 1568 1569 1569 1569 1569 1569 1569 1569 1569 1569 1568 1568 1568
1504 1509 1513 1517 1520 1523 1526 1529 1531 1534 1536 1539 1541 1543 1546 1548 1550 1552 1554 1556 1558 1560 1562 1563 1565 1566 1567 1568 1569 1570 1570 1571 1571 1571 1571 1571 1571 1571 1571 1570 1570 1570 1569
1504 1509 1514 1517 1520 1524 1526 1529 1532 1534 1537 1539 1542 1544 1547 1549 1551 1553 1555 1557 1559 1561 1563 1565 1566 1568 1569 1570 1571 1571 1572 1573 1573 1573 1573 1573 1573 1573 1572 1572 1572 1571 1571
1505 1510 1514 1518 1521 1524 1527 1530 1533 1535 1538 1540 1543 1545 1548 1550 1552 1554 1557 1559 1561 1563 1565 1566 1568 1569 1570 1571 1572 1573 1574 1574 1575 1575 1575 1574 1574 1574 1574 1574 1573 1573 1572
1507 1510 1514 1518 1521 1524 1527 1530 1533 1536 1538 1541 1543 1546 1549 1551 1553 1556 1558 1560 1562 1564 1566 1568 1569 1570 1572 1573 1573 1574 1575 1575 1576 1576 1576 1576 1576 1575 1575 1575 1574 1574 1573
1507 1511 1514 1518 1521 1524 1527 1531 1533 1536 1539 1542 1544 1547 1549 1552 1554 1556 1559 1561 1563 1565 1567 1568 1570 1571 1573 1574 1574 1575 1576 1576 1577 1577 1577 1577 1577 1576 1576 1576 1575 1575 1574
1507 1510 1514 1518 1521 1524 1527 1531 1534 1536 1539 1542 1545 1547 1550 1552 1555 1557 1560 1562 1564 1566 1568 1569 1570 1572 1573 1574 1575 1576 1577 1577 1577 1578 1578 1577 1577 1577 1577 1576 1576 1575 1575
1504 1509 1513 1517 1521 1524 1527 1530 1533 1536 1539 1542 1545 1547 1550 1553 1555 1558 1560 1562 1564 1566 1568 1570 1571 1572 1573 1575 1576 1576 1577 1577 1578 1578 1578 1578 1577 1577 1577 1576 1576 1575 1575
1503 1507 1512 1516 1520 1523 1527 1530 1533 1536 1539 1542 1545 1547 1550 1553 1555 1558 1560 1562 1564 1566 1568 1570 1571 1572 1574 1575 1576 1576 1577 1577 1578 1578 1578 1577 1577 1577 1577 1576 1576 1575 1575
1501 1505 1511 1515 1519 1523 1526 1529 1532 1535 1538 1541 1544 1547 1550 1552 1555 1557 1560 1562 1564 1566 1568 1570 1571 1572 1573 1574 1575 1576 1576 1577 1577 1577 1577 1577 1577 1576 1576 1576 1575 1575 1574
1499 1503 1508 1513 1518 1522 1525 1528 1531 1534 1537 1540 1543 1546 1549 1552 1554 1557 1559 1561 1564 1566 1567 1569 1570 1572 1573 1574 1575 1575 1576 1576 1576 1576 1576 1576 1576 1575 1575 1575 1574 1574 1573
1497 1502 1506 1511 1516 1520 1524 1527 1530 1533 1537 1540 1543 1545 1549 1551 1554 1556 1559 1561 1563 1565 1567 1568 1570 1571 1572 1573 1574 1574 1575 1575 1575 1575 1575 1575 1575 1574 1574 1574 1573 1573 1572
1496 1500 1504 1509 1514 1518 1522 1526 1529 1532 1535 1538 1542 1544 1547 1550 1553 1555 1557 1560 1562 1564 1565 1567 1568 1569 1571 1571 1572 1573 1573 1573 1573 1573 1573 1573 1573 1573 1572 1572 1571 1571 1571
1494 1498 1502 1506 1511 1516 1520 1524 1527 1531 1534 1537 1540 1543 1546 1549 1551 1554 1556 1558 1560 1562 1564 1565 1567 1568 1569 1570 1570 1571 1571 1571 1571 1571 1571 1571 1570 1570 1570 1570 1569 1569 1569
1492 1495 1499 1503 1508 1513 1518 1522 1526 1529 1532 1535 1538 1541 1544 1547 1549 1552 1554 1556 1558 1560 1562 1563 1564 1566 1567 1567 1568 1568 1568 1568 1568 1568 1568 1568 1568 1567 1567 1567 1567 1567 1567
1490 1493 1497 1501 1505 1510 1515 1520 1523 1526 1529 1532 1536 1538 1541 1544 1547 1549 1551 1554 1555 1557 1559 1560 1562 1563 1564 1565 1565 1565 1565 1565 1565 1565 1565 1565 1565 1564 1564 1564 1564 1564 1564
1487 1491 1494 1497 1501 1506 1510 1514 1518 1522 1525 1529 1532 1536 1539 1541 1544 1546 1548 1550 1552 1554 1556 1558 1559 1560 1561 1562 1563 1562 1562 1562 1561 1561 1561 1561 1562 1562 1561 1561 1561 1561 1561
1483 1487 1491 1495 1498 1502 1505 1510 1514 1519 1522 1526 1529 1532 1535 1538 1541 1543 1545 1547 1549 1551 1553 1555 1556 1557 1558 1559 1560 1559 1559 1559 1558 1558 1558 1558 1558 1558 1558 1558 1558 1558 1558
1481 1484 1488 1491 1495 1498 1502 1506 1511 1515 1519 1522 1525 1528 1532 1535 1537 1540 1542 1544 1546 1548 1549 1551 1552 1554 1555 1556 1556 1557 1557 1555 1555 1555 1554 1555 1555 1555 1555 1555 1555 1555 1555
1479 1482 1485 1488 1492 1495 1498 1502 1505 1509 1512 1516 1520 1524 1528 1531 1533 1536 1538 1540 1542 1544 1546 1547 1549 1550 1551 1551 1552 1553 1554 1553 1553 1552 1551 1551 1551 1551 1552 1551 1551 1551 1551
1476 1479 1481 1485 1488 1491 1494 1498 1502 1505 1509 1512 1516 1519 1523 1526 1529 1531 1534 1536 1538 1539 1541 1543 1544 1545 1546 1547 1548 1549 1549 1549 1549 1549 1548 1548 1547 1547 1547 1547 1547 1547 1547
1473 1476 1479 1482 1484 1487 1491 1495 1498 1501 1504 1508 1511 1515 1518 1521 1524 1527 1529 1531 1533 1535 1537 1538 1540 1541 1542 1543 1544 1544 1545 1545 1545 1545 1544 1543 1543 1543 1542 1542 1542 1542 1542